Time,TemperatureF,DewpointF,PressureIn,WindDirection,WindDirectionDegrees,WindSpeedMPH,WindSpeedGustMPH,Humidity,HourlyPrecipIn,Conditions,Clouds,dailyrainin,SoftwareType,DateUTC
2013-02-23 00:01:00,63.0,61.0,30.11,South,170,0.0,-999.0,93,-99.99,,,-99.99,,2013-02-23 10:01:00,
2013-02-23 00:11:00,63.0,61.0,30.11,South,170,0.0,-999.0,93,-99.99,,,-99.99,,2013-02-23 10:11:00,
2013-02-23 00:21:00,63.0,61.0,30.11,South,170,0.0,-999.0,93,-99.99,,,-99.99,,2013-02-23 10:21:00,
2013-02-23 00:31:00,63.0,61.0,30.11,South,170,0.0,-999.0,93,-99.99,,,-99.99,,2013-02-23 10:31:00,
2013-02-23 00:41:00,63.0,61.0,30.11,South,170,0.0,-999.0,93,-99.99,,,-99.99,,2013-02-23 10:41:00,
2013-02-23 00:52:00,63.0,61.0,30.10,South,170,0.0,-999.0,93,-99.99,,,-99.99,,2013-02-23 10:52:00,
2013-02-23 01:01:00,63.0,61.0,30.10,South,170,0.0,-999.0,92,-99.99,,,-99.99,,2013-02-23 11:01:00,
2013-02-23 01:11:00,63.0,61.0,30.10,South,170,0.0,-999.0,92,-99.99,,,-99.99,,2013-02-23 11:11:00,
2013-02-23 01:21:00,62.0,60.0,30.10,South,170,0.0,-999.0,92,-99.99,,,-99.99,,2013-02-23 11:21:00,
2013-02-23 01:32:00,62.0,59.0,30.09,South,170,0.0,-999.0,91,-99.99,,,-99.99,,2013-02-23 11:32:00,
2013-02-23 01:41:00,62.0,59.0,30.09,South,170,0.0,-999.0,91,-99.99,,,-99.99,,2013-02-23 11:41:00,
2013-02-23 01:52:00,62.0,60.0,30.09,South,170,0.0,-999.0,92,-99.99,,,-99.99,,2013-02-23 11:52:00,
2013-02-23 02:01:00,62.0,60.0,30.09,South,170,0.0,-999.0,92,-99.99,,,-99.99,,2013-02-23 12:01:00,
2013-02-23 02:11:00,62.0,60.0,30.09,South,170,0.0,-999.0,92,-99.99,,,-99.99,,2013-02-23 12:11:00,
2013-02-23 02:21:00,63.0,61.0,30.09,South,170,0.0,-999.0,93,-99.99,,,-99.99,,2013-02-23 12:21:00,
2013-02-23 02:32:00,63.0,61.0,30.07,South,170,0.0,-999.0,92,-99.99,,,-99.99,,2013-02-23 12:32:00,
2013-02-23 02:42:00,63.0,61.0,30.07,South,170,0.0,-999.0,92,-99.99,,,-99.99,,2013-02-23 12:42:00,
2013-02-23 02:52:00,64.0,62.0,30.07,South,170,0.0,-999.0,94,-99.99,,,-99.99,,2013-02-23 12:52:00,
2013-02-23 03:01:00,64.0,62.0,30.07,South,170,0.0,-999.0,94,-99.99,,,-99.99,,2013-02-23 13:01:00,
2013-02-23 03:11:00,64.0,62.0,30.07,South,170,0.0,-999.0,94,-99.99,,,-99.99,,2013-02-23 13:11:00,
2013-02-23 03:22:00,64.0,62.0,30.06,South,170,0.0,-999.0,92,-99.99,,,-99.99,,2013-02-23 13:22:00,
2013-02-23 03:31:00,63.0,60.0,30.06,South,170,0.0,-999.0,91,-99.99,,,-99.99,,2013-02-23 13:31:00,
2013-02-23 03:42:00,63.0,60.0,30.06,South,170,0.0,-999.0,91,-99.99,,,-99.99,,2013-02-23 13:42:00,
2013-02-23 03:52:00,63.0,60.0,30.05,South,170,0.0,-999.0,90,-99.99,,,-99.99,,2013-02-23 13:52:00,
2013-02-23 04:01:00,63.0,60.0,30.05,South,170,0.0,-999.0,90,-99.99,,,-99.99,,2013-02-23 14:01:00,
2013-02-23 04:11:00,63.0,60.0,30.05,South,170,0.0,-999.0,90,-99.99,,,-99.99,,2013-02-23 14:11:00,
2013-02-23 04:21:00,63.0,60.0,30.05,South,170,0.0,-999.0,91,-99.99,,,-99.99,,2013-02-23 14:21:00,
2013-02-23 04:32:00,62.0,59.0,30.06,South,170,0.0,-999.0,91,-99.99,,,-99.99,,2013-02-23 14:32:00,
2013-02-23 04:41:00,62.0,59.0,30.06,South,170,0.0,-999.0,91,-99.99,,,-99.99,,2013-02-23 14:41:00,
2013-02-23 04:52:00,62.0,60.0,30.05,South,170,0.0,-999.0,92,-99.99,,,-99.99,,2013-02-23 14:52:00,
2013-02-23 05:01:00,62.0,60.0,30.06,South,170,0.0,-999.0,92,-99.99,,,-99.99,,2013-02-23 15:01:00,
2013-02-23 05:11:00,62.0,60.0,30.06,South,170,0.0,-999.0,92,-99.99,,,-99.99,,2013-02-23 15:11:00,
2013-02-23 05:21:00,62.0,60.0,30.06,South,170,0.0,-999.0,92,-99.99,,,-99.99,,2013-02-23 15:21:00,
2013-02-23 05:31:00,62.0,60.0,30.06,South,170,0.0,-999.0,93,-99.99,,,-99.99,,2013-02-23 15:31:00,
2013-02-23 05:41:00,62.0,60.0,30.06,South,170,0.0,-999.0,93,-99.99,,,-99.99,,2013-02-23 15:41:00,
2013-02-23 05:52:00,62.0,60.0,30.06,South,170,0.0,-999.0,93,-99.99,,,-99.99,,2013-02-23 15:52:00,
2013-02-23 06:01:00,63.0,61.0,30.06,South,170,0.0,-999.0,93,-99.99,,,-99.99,,2013-02-23 16:01:00,
2013-02-23 06:11:00,63.0,61.0,30.06,South,170,0.0,-999.0,93,-99.99,,,-99.99,,2013-02-23 16:11:00,
2013-02-23 06:21:00,62.0,59.0,30.07,South,170,0.0,-999.0,91,-99.99,,,-99.99,,2013-02-23 16:21:00,
2013-02-23 06:31:00,62.0,59.0,30.08,South,170,0.0,-999.0,89,-99.99,,,-99.99,,2013-02-23 16:31:00,
2013-02-23 06:42:00,62.0,59.0,30.08,South,170,0.0,-999.0,89,-99.99,,,-99.99,,2013-02-23 16:42:00,
2013-02-23 06:52:00,62.0,59.0,30.08,South,170,0.0,-999.0,91,-99.99,,,-99.99,,2013-02-23 16:52:00,
2013-02-23 07:01:00,62.0,59.0,30.08,South,170,0.0,-999.0,91,-99.99,,,-99.99,,2013-02-23 17:01:00,
2013-02-23 07:11:00,62.0,59.0,30.09,South,170,0.0,-999.0,89,-99.99,,,-99.99,,2013-02-23 17:11:00,
2013-02-23 07:21:00,62.0,59.0,30.09,South,170,0.0,-999.0,89,-99.99,,,-99.99,,2013-02-23 17:21:00,
2013-02-23 07:31:00,62.0,59.0,30.10,South,170,0.0,-999.0,89,-99.99,,,-99.99,,2013-02-23 17:31:00,
2013-02-23 07:42:00,62.0,59.0,30.10,South,170,0.0,-999.0,89,-99.99,,,-99.99,,2013-02-23 17:42:00,
2013-02-23 07:52:00,62.0,59.0,30.11,South,170,0.0,-999.0,90,-99.99,,,-99.99,,2013-02-23 17:52:00,
2013-02-23 08:01:00,62.0,59.0,30.11,South,170,0.0,-999.0,91,-99.99,,,-99.99,,2013-02-23 18:01:00,
2013-02-23 08:11:00,62.0,59.0,30.11,South,170,0.0,-999.0,91,-99.99,,,-99.99,,2013-02-23 18:11:00,
2013-02-23 08:21:00,63.0,61.0,30.12,South,170,0.0,-999.0,92,-99.99,,,-99.99,,2013-02-23 18:21:00,
2013-02-23 08:31:00,65.0,63.0,30.12,South,170,0.0,-999.0,93,-99.99,,,-99.99,,2013-02-23 18:31:00,
2013-02-23 08:41:00,65.0,63.0,30.12,South,170,0.0,-999.0,93,-99.99,,,-99.99,,2013-02-23 18:41:00,
2013-02-23 08:52:00,67.0,64.0,30.12,South,170,0.0,-999.0,91,-99.99,,,-99.99,,2013-02-23 18:52:00,
2013-02-23 09:01:00,68.0,65.0,30.13,South,172,0.0,-999.0,90,-99.99,,,-99.99,,2013-02-23 19:01:00,
2013-02-23 09:11:00,69.0,65.0,30.13,South,178,0.0,-999.0,87,-99.99,,,-99.99,,2013-02-23 19:11:00,
2013-02-23 09:21:00,69.0,65.0,30.13,South,178,0.0,-999.0,87,-99.99,,,-99.99,,2013-02-23 19:21:00,
2013-02-23 09:32:00,70.0,65.0,30.12,SSW,202,0.0,-999.0,85,-99.99,,,-99.99,,2013-02-23 19:32:00,
2013-02-23 09:41:00,70.0,65.0,30.12,SSW,202,0.0,-999.0,85,-99.99,,,-99.99,,2013-02-23 19:41:00,
2013-02-23 09:52:00,71.0,65.0,30.13,SSW,213,0.0,-999.0,82,-99.99,,,-99.99,,2013-02-23 19:52:00,
2013-02-23 10:01:00,71.0,65.0,30.13,SSW,213,0.0,-999.0,82,-99.99,,,-99.99,,2013-02-23 20:01:00,
2013-02-23 10:11:00,71.0,65.0,30.13,SSW,213,0.0,-999.0,82,-99.99,,,-99.99,,2013-02-23 20:11:00,
2013-02-23 10:21:00,71.0,65.0,30.13,SSW,213,0.0,-999.0,82,-99.99,,,-99.99,,2013-02-23 20:21:00,
2013-02-23 10:31:00,74.0,67.0,30.13,SSW,202,0.0,-999.0,78,-99.99,,,-99.99,,2013-02-23 20:31:00,
2013-02-23 10:42:00,74.0,67.0,30.13,SSW,202,0.0,-999.0,78,-99.99,,,-99.99,,2013-02-23 20:42:00,
2013-02-23 10:52:00,75.0,66.0,30.13,SW,224,0.0,-999.0,74,-99.99,,,-99.99,,2013-02-23 20:52:00,
2013-02-23 11:01:00,75.0,67.0,30.13,South,183,0.0,-999.0,76,-99.99,,,-99.99,,2013-02-23 21:01:00,
2013-02-23 11:11:00,75.0,67.0,30.13,South,183,0.0,-999.0,76,-99.99,,,-99.99,,2013-02-23 21:11:00,
2013-02-23 11:22:00,75.0,67.0,30.13,South,183,0.0,-999.0,76,-99.99,,,-99.99,,2013-02-23 21:22:00,
2013-02-23 11:31:00,72.0,65.0,30.12,SSW,198,3.0,-999.0,80,-99.99,,,-99.99,,2013-02-23 21:31:00,
2013-02-23 11:41:00,72.0,65.0,30.12,SSW,198,3.0,-999.0,80,-99.99,,,-99.99,,2013-02-23 21:41:00,
2013-02-23 11:52:00,72.0,65.0,30.12,SSW,198,3.0,-999.0,80,-99.99,,,-99.99,,2013-02-23 21:52:00,
2013-02-23 12:01:00,72.0,66.0,30.11,SW,234,3.0,-999.0,81,-99.99,,,-99.99,,2013-02-23 22:01:00,
2013-02-23 12:11:00,72.0,66.0,30.11,SW,234,3.0,-999.0,81,-99.99,,,-99.99,,2013-02-23 22:11:00,
2013-02-23 12:21:00,72.0,66.0,30.11,SW,234,3.0,-999.0,81,-99.99,,,-99.99,,2013-02-23 22:21:00,
2013-02-23 12:31:00,73.0,65.0,30.10,WSW,253,2.0,-999.0,77,-99.99,,,-99.99,,2013-02-23 22:31:00,
2013-02-23 12:41:00,73.0,65.0,30.10,WSW,253,2.0,-999.0,77,-99.99,,,-99.99,,2013-02-23 22:41:00,
2013-02-23 12:52:00,72.0,64.0,30.09,SW,225,3.0,-999.0,77,-99.99,,,-99.99,,2013-02-23 22:52:00,
2013-02-23 13:01:00,72.0,64.0,30.09,SW,225,3.0,-999.0,77,-99.99,,,-99.99,,2013-02-23 23:01:00,
2013-02-23 13:11:00,72.0,64.0,30.08,WSW,246,3.0,-999.0,77,-99.99,,,-99.99,,2013-02-23 23:11:00,
2013-02-23 13:21:00,72.0,64.0,30.08,WSW,246,3.0,-999.0,77,-99.99,,,-99.99,,2013-02-23 23:21:00,
2013-02-23 13:31:00,72.0,65.0,30.07,South,191,3.0,-999.0,78,-99.99,,,-99.99,,2013-02-23 23:31:00,
2013-02-23 13:42:00,72.0,65.0,30.07,South,191,3.0,-999.0,78,-99.99,,,-99.99,,2013-02-23 23:42:00,
2013-02-23 13:52:00,72.0,65.0,30.07,South,171,2.0,-999.0,80,-99.99,,,-99.99,,2013-02-23 23:52:00,
2013-02-23 14:01:00,71.0,65.0,30.06,SE,127,2.0,-999.0,82,-99.99,,,-99.99,,2013-02-24 00:01:00,
2013-02-23 14:11:00,71.0,65.0,30.06,SE,127,2.0,-999.0,82,-99.99,,,-99.99,,2013-02-24 00:11:00,
2013-02-23 14:21:00,72.0,66.0,30.05,East,94,2.0,-999.0,81,-99.99,,,-99.99,,2013-02-24 00:21:00,
2013-02-23 14:31:00,72.0,65.0,30.05,SSE,155,2.0,-999.0,78,-99.99,,,-99.99,,2013-02-24 00:31:00,
2013-02-23 14:42:00,72.0,65.0,30.05,SSE,155,2.0,-999.0,78,-99.99,,,-99.99,,2013-02-24 00:42:00,
2013-02-23 14:52:00,72.0,65.0,30.05,SSE,155,2.0,-999.0,78,-99.99,,,-99.99,,2013-02-24 00:52:00,
2013-02-23 15:01:00,75.0,65.0,30.04,SSW,193,5.0,-999.0,70,-99.99,,,-99.99,,2013-02-24 01:01:00,
2013-02-23 15:11:00,75.0,65.0,30.04,SSW,193,5.0,-999.0,70,-99.99,,,-99.99,,2013-02-24 01:11:00,
2013-02-23 15:22:00,75.0,65.0,30.04,SW,223,4.0,-999.0,70,-99.99,,,-99.99,,2013-02-24 01:22:00,
2013-02-23 15:31:00,74.0,64.0,30.03,South,173,5.0,-999.0,71,-99.99,,,-99.99,,2013-02-24 01:31:00,
2013-02-23 15:41:00,74.0,64.0,30.03,South,173,5.0,-999.0,71,-99.99,,,-99.99,,2013-02-24 01:41:00,
2013-02-23 15:52:00,74.0,64.0,30.03,South,173,5.0,-999.0,71,-99.99,,,-99.99,,2013-02-24 01:52:00,
2013-02-23 16:01:00,73.0,65.0,30.05,WSW,252,3.0,-999.0,76,-99.99,,,-99.99,,2013-02-24 02:01:00,
2013-02-23 16:11:00,73.0,65.0,30.05,WSW,252,3.0,-999.0,76,-99.99,,,-99.99,,2013-02-24 02:11:00,
2013-02-23 16:21:00,73.0,65.0,30.05,WSW,252,3.0,-999.0,76,-99.99,,,-99.99,,2013-02-24 02:21:00,
2013-02-23 16:31:00,65.0,62.0,30.06,East,83,0.0,-999.0,91,-99.99,,,-99.99,,2013-02-24 02:31:00,
2013-02-23 16:41:00,65.0,62.0,30.06,East,83,0.0,-999.0,91,-99.99,,,-99.99,,2013-02-24 02:41:00,
2013-02-23 16:52:00,64.0,62.0,30.05,ENE,76,1.0,-999.0,93,-99.99,,,-99.99,,2013-02-24 02:52:00,
2013-02-23 17:01:00,65.0,63.0,30.05,ESE,117,2.0,-999.0,94,-99.99,,,-99.99,,2013-02-24 03:01:00,
2013-02-23 17:11:00,67.0,66.0,30.06,SE,130,2.0,-999.0,95,-99.99,,,-99.99,,2013-02-24 03:11:00,
2013-02-23 17:21:00,67.0,66.0,30.06,SE,130,2.0,-999.0,95,-99.99,,,-99.99,,2013-02-24 03:21:00,
2013-02-23 17:31:00,68.0,65.0,30.06,East,96,2.0,-999.0,89,-99.99,,,-99.99,,2013-02-24 03:31:00,
2013-02-23 17:42:00,68.0,65.0,30.06,East,96,2.0,-999.0,89,-99.99,,,-99.99,,2013-02-24 03:42:00,
2013-02-23 17:52:00,69.0,65.0,30.06,South,181,1.0,-999.0,87,-99.99,,,-99.99,,2013-02-24 03:52:00,
2013-02-23 18:01:00,70.0,65.0,30.07,ESE,107,0.0,-999.0,84,-99.99,,,-99.99,,2013-02-24 04:01:00,
2013-02-23 18:11:00,70.0,65.0,30.07,ESE,107,0.0,-999.0,84,-99.99,,,-99.99,,2013-02-24 04:11:00,
2013-02-23 18:21:00,69.0,65.0,30.07,ESE,107,0.0,-999.0,86,-99.99,,,-99.99,,2013-02-24 04:21:00,
2013-02-23 18:31:00,68.0,64.0,30.08,ESE,105,0.0,-999.0,87,-99.99,,,-99.99,,2013-02-24 04:31:00,
2013-02-23 18:41:00,68.0,64.0,30.08,ESE,105,0.0,-999.0,87,-99.99,,,-99.99,,2013-02-24 04:41:00,
2013-02-23 18:52:00,68.0,64.0,30.08,ESE,105,0.0,-999.0,87,-99.99,,,-99.99,,2013-02-24 04:52:00,
2013-02-23 19:01:00,67.0,64.0,30.09,ESE,105,1.0,-999.0,89,-99.99,,,-99.99,,2013-02-24 05:01:00,
2013-02-23 19:11:00,67.0,64.0,30.09,ESE,105,1.0,-999.0,89,-99.99,,,-99.99,,2013-02-24 05:11:00,
2013-02-23 19:21:00,66.0,63.0,30.09,East,90,0.0,-999.0,90,-99.99,,,-99.99,,2013-02-24 05:21:00,
2013-02-23 19:32:00,66.0,63.0,30.09,East,89,0.0,-999.0,90,-99.99,,,-99.99,,2013-02-24 05:32:00,
2013-02-23 19:41:00,66.0,63.0,30.09,East,89,0.0,-999.0,90,-99.99,,,-99.99,,2013-02-24 05:41:00,
2013-02-23 19:52:00,66.0,63.0,30.10,East,89,0.0,-999.0,90,-99.99,,,-99.99,,2013-02-24 05:52:00,
2013-02-23 20:01:00,66.0,63.0,30.10,East,89,1.0,-999.0,90,-99.99,,,-99.99,,2013-02-24 06:01:00,
2013-02-23 20:11:00,66.0,63.0,30.10,East,89,1.0,-999.0,90,-99.99,,,-99.99,,2013-02-24 06:11:00,
2013-02-23 20:21:00,65.0,62.0,30.11,East,89,0.0,-999.0,90,-99.99,,,-99.99,,2013-02-24 06:21:00,
2013-02-23 20:31:00,65.0,62.0,30.10,ENE,78,1.0,-999.0,90,-99.99,,,-99.99,,2013-02-24 06:31:00,
2013-02-23 20:41:00,65.0,62.0,30.10,ENE,78,1.0,-999.0,90,-99.99,,,-99.99,,2013-02-24 06:41:00,
2013-02-23 20:52:00,64.0,61.0,30.11,ENE,78,0.0,-999.0,90,-99.99,,,-99.99,,2013-02-24 06:52:00,
2013-02-23 21:01:00,64.0,61.0,30.11,ENE,78,0.0,-999.0,91,-99.99,,,-99.99,,2013-02-24 07:01:00,
2013-02-23 21:11:00,64.0,61.0,30.11,ENE,78,0.0,-999.0,91,-99.99,,,-99.99,,2013-02-24 07:11:00,
2013-02-23 21:21:00,63.0,60.0,30.11,ENE,78,1.0,-999.0,91,-99.99,,,-99.99,,2013-02-24 07:21:00,
2013-02-23 21:31:00,63.0,60.0,30.11,ENE,60,3.0,-999.0,91,-99.99,,,-99.99,,2013-02-24 07:31:00,
2013-02-23 21:41:00,63.0,60.0,30.11,ENE,60,3.0,-999.0,91,-99.99,,,-99.99,,2013-02-24 07:41:00,
2013-02-23 21:52:00,63.0,61.0,30.11,ENE,60,0.0,-999.0,92,-99.99,,,-99.99,,2013-02-24 07:52:00,
2013-02-23 22:01:00,63.0,60.0,30.11,East,79,1.0,-999.0,91,-99.99,,,-99.99,,2013-02-24 08:01:00,
2013-02-23 22:11:00,63.0,60.0,30.11,East,79,1.0,-999.0,91,-99.99,,,-99.99,,2013-02-24 08:11:00,
2013-02-23 22:22:00,63.0,60.0,30.11,East,82,2.0,-999.0,89,-99.99,,,-99.99,,2013-02-24 08:22:00,
2013-02-23 22:31:00,64.0,61.0,30.11,ENE,78,2.0,-999.0,89,-99.99,,,-99.99,,2013-02-24 08:31:00,
2013-02-23 22:41:00,64.0,61.0,30.11,ENE,78,2.0,-999.0,89,-99.99,,,-99.99,,2013-02-24 08:41:00,
2013-02-23 22:53:00,64.0,60.0,30.11,East,101,2.0,-999.0,88,-99.99,,,-99.99,,2013-02-24 08:53:00,
2013-02-23 23:01:00,64.0,60.0,30.11,East,85,2.0,-999.0,88,-99.99,,,-99.99,,2013-02-24 09:01:00,
2013-02-23 23:11:00,64.0,60.0,30.11,East,85,2.0,-999.0,88,-99.99,,,-99.99,,2013-02-24 09:11:00,
2013-02-23 23:21:00,64.0,60.0,30.10,East,86,2.0,-999.0,86,-99.99,,,-99.99,,2013-02-24 09:21:00,
2013-02-23 23:31:00,64.0,59.0,30.10,ENE,77,2.0,-999.0,85,-99.99,,,-99.99,,2013-02-24 09:31:00,
2013-02-23 23:41:00,64.0,59.0,30.10,ENE,77,2.0,-999.0,85,-99.99,,,-99.99,,2013-02-24 09:41:00,
2013-02-23 23:52:00,64.0,59.0,30.10,ESE,103,1.0,-999.0,85,-99.99,,,-99.99,,2013-02-24 09:52:00,